Time,TemperatureF,DewpointF,PressureIn,WindDirection,WindDirectionDegrees,WindSpeedMPH,WindSpeedGustMPH,Humidity,HourlyPrecipIn,Conditions,Clouds,dailyrainin,SoftwareType,DateUTC
2013-01-04 00:00:00,28.4,22.1,30.18,NNW,331,8.0,17.0,77,0.00,,,0.00,Wunderground v.1.15,2013-01-04 06:00:00,
2013-01-04 00:10:00,28.4,21.8,30.18,WNW,303,7.0,7.0,76,0.00,,,0.00,Wunderground v.1.15,2013-01-04 06:10:00,
2013-01-04 00:15:00,28.5,21.9,30.18,WSW,255,6.0,7.0,76,0.00,,,0.00,Wunderground v.1.15,2013-01-04 06:15:00,
2013-01-04 00:20:00,28.4,21.5,30.18,NW,315,8.0,8.0,75,0.00,,,0.00,Wunderground v.1.15,2013-01-04 06:20:00,
2013-01-04 00:25:00,28.4,21.5,30.18,WNW,293,7.0,16.0,75,0.00,,,0.00,Wunderground v.1.15,2013-01-04 06:25:00,
2013-01-04 00:30:00,28.2,21.3,30.17,West,281,7.0,10.0,75,0.00,,,0.00,Wunderground v.1.15,2013-01-04 06:30:00,
2013-01-04 00:35:00,28.2,21.3,30.17,NW,313,8.0,15.0,75,0.00,,,0.00,Wunderground v.1.15,2013-01-04 06:35:00,
2013-01-04 00:40:00,28.1,20.9,30.17,WSW,242,7.0,7.0,74,0.00,,,0.00,Wunderground v.1.15,2013-01-04 06:40:00,
2013-01-04 00:45:00,28.2,21.3,30.17,West,269,8.0,9.0,75,0.00,,,0.00,Wunderground v.1.15,2013-01-04 06:45:00,
2013-01-04 00:50:00,28.1,21.5,30.17,WNW,302,8.0,8.0,76,0.00,,,0.00,Wunderground v.1.15,2013-01-04 06:50:00,
2013-01-04 00:55:00,27.9,21.0,30.17,WSW,255,7.0,10.0,75,0.00,,,0.00,Wunderground v.1.15,2013-01-04 06:55:00,
2013-01-04 01:00:00,27.8,20.9,30.17,WNW,284,8.0,8.0,75,0.00,,,0.00,Wunderground v.1.15,2013-01-04 07:00:00,
2013-01-04 01:10:00,27.5,20.6,30.17,WSW,257,9.0,13.0,75,0.00,,,0.00,Wunderground v.1.15,2013-01-04 07:10:00,
2013-01-04 01:15:00,27.2,20.3,30.17,West,278,10.0,13.0,75,0.00,,,0.00,Wunderground v.1.15,2013-01-04 07:15:00,
2013-01-04 01:20:00,27.2,20.3,30.17,WNW,284,10.0,10.0,75,0.00,,,0.00,Wunderground v.1.15,2013-01-04 07:20:00,
2013-01-04 01:25:00,27.2,20.3,30.17,WNW,287,9.0,10.0,75,0.00,,,0.00,Wunderground v.1.15,2013-01-04 07:25:00,
2013-01-04 01:29:00,27.0,19.8,30.17,West,261,8.0,8.0,74,0.00,,,0.00,Wunderground v.1.15,2013-01-04 07:29:00,
2013-01-04 01:34:00,27.3,20.7,30.17,WSW,250,8.0,13.0,76,0.00,,,0.00,Wunderground v.1.15,2013-01-04 07:34:00,
2013-01-04 01:39:00,27.3,20.7,30.17,West,265,10.0,10.0,76,0.00,,,0.00,Wunderground v.1.15,2013-01-04 07:39:00,
2013-01-04 01:44:00,27.2,20.6,30.17,West,279,11.0,11.0,76,0.00,,,0.00,Wunderground v.1.15,2013-01-04 07:44:00,
2013-01-04 01:50:00,27.0,20.4,30.17,West,262,11.0,11.0,76,0.00,,,0.00,Wunderground v.1.15,2013-01-04 07:50:00,
2013-01-04 01:59:00,26.7,20.1,30.17,WSW,256,10.0,11.0,76,0.00,,,0.00,Wunderground v.1.15,2013-01-04 07:59:00,
2013-01-04 02:05:00,26.6,20.1,30.17,WSW,257,11.0,11.0,76,0.00,,,0.00,Wunderground v.1.15,2013-01-04 08:05:00,
2013-01-04 02:10:00,26.4,19.9,30.17,West,264,12.0,12.0,76,0.00,,,0.00,Wunderground v.1.15,2013-01-04 08:10:00,
2013-01-04 02:15:00,26.4,19.9,30.18,WNW,285,11.0,18.0,76,0.00,,,0.00,Wunderground v.1.15,2013-01-04 08:15:00,
2013-01-04 02:20:00,26.3,20.1,30.18,West,262,10.0,10.0,77,0.00,,,0.00,Wunderground v.1.15,2013-01-04 08:20:00,
2013-01-04 02:25:00,26.3,20.1,30.18,West,269,9.0,10.0,77,0.00,,,0.00,Wunderground v.1.15,2013-01-04 08:25:00,
2013-01-04 02:30:00,26.3,20.1,30.18,West,275,9.0,9.0,77,0.00,,,0.00,Wunderground v.1.15,2013-01-04 08:30:00,
2013-01-04 02:35:00,26.3,20.1,30.18,West,274,10.0,10.0,77,0.00,,,0.00,Wunderground v.1.15,2013-01-04 08:35:00,
2013-01-04 02:40:00,26.3,20.1,30.18,WNW,283,10.0,10.0,77,0.00,,,0.00,Wunderground v.1.15,2013-01-04 08:40:00,
2013-01-04 02:45:00,26.3,20.1,30.17,WNW,284,9.0,10.0,77,0.00,,,0.00,Wunderground v.1.15,2013-01-04 08:45:00,
2013-01-04 02:49:00,26.1,19.6,30.17,West,259,9.0,9.0,76,0.00,,,0.00,Wunderground v.1.15,2013-01-04 08:49:00,
2013-01-04 02:54:00,26.3,20.1,30.17,West,273,10.0,10.0,77,0.00,,,0.00,Wunderground v.1.15,2013-01-04 08:54:00,
2013-01-04 02:59:00,26.3,20.1,30.16,West,267,10.0,14.0,77,0.00,,,0.00,Wunderground v.1.15,2013-01-04 08:59:00,
2013-01-04 03:05:00,26.3,19.8,30.16,West,260,11.0,14.0,76,0.00,,,0.00,Wunderground v.1.15,2013-01-04 09:05:00,
2013-01-04 03:09:00,26.3,19.8,30.16,West,269,10.0,10.0,76,0.00,,,0.00,Wunderground v.1.15,2013-01-04 09:09:00,
2013-01-04 03:14:00,26.3,19.8,30.16,WSW,250,9.0,14.0,76,0.00,,,0.00,Wunderground v.1.15,2013-01-04 09:14:00,
2013-01-04 03:19:00,26.4,19.9,30.16,West,269,10.0,11.0,76,0.00,,,0.00,Wunderground v.1.15,2013-01-04 09:19:00,
2013-01-04 03:25:00,26.4,19.5,30.16,West,277,11.0,20.0,75,0.00,,,0.00,Wunderground v.1.15,2013-01-04 09:25:00,
2013-01-04 03:30:00,26.4,19.5,30.16,WNW,292,11.0,11.0,75,0.00,,,0.00,Wunderground v.1.15,2013-01-04 09:30:00,
2013-01-04 03:35:00,26.4,19.2,30.16,West,276,9.0,12.0,74,0.00,,,0.00,Wunderground v.1.15,2013-01-04 09:35:00,
2013-01-04 03:40:00,26.3,19.1,30.16,West,274,10.0,15.0,74,0.00,,,0.00,Wunderground v.1.15,2013-01-04 09:40:00,
2013-01-04 03:45:00,26.1,18.3,30.16,WNW,294,11.0,15.0,72,0.00,,,0.00,Wunderground v.1.15,2013-01-04 09:45:00,
2013-01-04 03:50:00,26.0,18.5,30.16,WNW,300,11.0,13.0,73,0.00,,,0.00,Wunderground v.1.15,2013-01-04 09:50:00,
2013-01-04 03:55:00,26.0,18.5,30.16,West,281,10.0,13.0,73,0.00,,,0.00,Wunderground v.1.15,2013-01-04 09:55:00,
2013-01-04 04:00:00,26.0,18.8,30.16,West,265,9.0,9.0,74,0.00,,,0.00,Wunderground v.1.15,2013-01-04 10:00:00,
2013-01-04 04:05:00,25.8,18.7,30.16,West,275,8.0,9.0,74,0.00,,,0.00,Wunderground v.1.15,2013-01-04 10:05:00,
2013-01-04 04:10:00,25.7,18.6,30.16,West,273,9.0,13.0,74,0.00,,,0.00,Wunderground v.1.15,2013-01-04 10:10:00,
2013-01-04 04:15:00,25.7,18.9,30.15,NW,304,10.0,13.0,75,0.00,,,0.00,Wunderground v.1.15,2013-01-04 10:15:00,
2013-01-04 04:20:00,25.7,18.6,30.15,West,261,10.0,10.0,74,0.00,,,0.00,Wunderground v.1.15,2013-01-04 10:20:00,
2013-01-04 04:25:00,25.7,18.6,30.15,WNW,289,8.0,10.0,74,0.00,,,0.00,Wunderground v.1.15,2013-01-04 10:25:00,
2013-01-04 04:30:00,25.7,18.6,30.15,West,271,8.0,8.0,74,0.00,,,0.00,Wunderground v.1.15,2013-01-04 10:30:00,
2013-01-04 04:35:00,25.7,18.2,30.15,West,266,9.0,9.0,73,0.00,,,0.00,Wunderground v.1.15,2013-01-04 10:35:00,
2013-01-04 04:40:00,25.7,18.6,30.15,WNW,288,10.0,11.0,74,0.00,,,0.00,Wunderground v.1.15,2013-01-04 10:40:00,
2013-01-04 04:45:00,25.6,18.8,30.15,WNW,289,11.0,17.0,75,0.00,,,0.00,Wunderground v.1.15,2013-01-04 10:45:00,
2013-01-04 04:50:00,25.4,19.2,30.15,West,263,11.0,11.0,77,0.00,,,0.00,Wunderground v.1.15,2013-01-04 10:50:00,
2013-01-04 04:55:00,25.4,18.6,30.15,WNW,288,11.0,11.0,75,0.00,,,0.00,Wunderground v.1.15,2013-01-04 10:55:00,
2013-01-04 05:00:00,25.1,18.3,30.15,West,267,9.0,9.0,75,0.00,,,0.00,Wunderground v.1.15,2013-01-04 11:00:00,
2013-01-04 05:04:00,25.0,17.9,30.15,WNW,293,9.0,9.0,74,0.00,,,0.00,Wunderground v.1.15,2013-01-04 11:04:00,
2013-01-04 05:09:00,25.0,17.9,30.15,WSW,254,9.0,9.0,74,0.00,,,0.00,Wunderground v.1.15,2013-01-04 11:09:00,
2013-01-04 05:14:00,25.0,18.2,30.15,West,274,9.0,15.0,75,0.00,,,0.00,Wunderground v.1.15,2013-01-04 11:14:00,
2013-01-04 05:19:00,25.0,17.9,30.15,West,264,9.0,9.0,74,0.00,,,0.00,Wunderground v.1.15,2013-01-04 11:19:00,
2013-01-04 05:24:00,24.8,17.7,30.15,WNW,284,9.0,13.0,74,0.00,,,0.00,Wunderground v.1.15,2013-01-04 11:24:00,
2013-01-04 05:29:00,24.7,17.0,30.15,NW,307,9.0,9.0,72,0.00,,,0.00,Wunderground v.1.15,2013-01-04 11:29:00,
2013-01-04 05:35:00,24.5,16.4,30.15,West,275,9.0,12.0,71,0.00,,,0.00,Wunderground v.1.15,2013-01-04 11:35:00,
2013-01-04 05:40:00,24.4,16.0,30.15,WNW,283,11.0,11.0,70,0.00,,,0.00,Wunderground v.1.15,2013-01-04 11:40:00,
2013-01-04 05:45:00,24.1,16.1,30.16,West,273,11.0,13.0,71,0.00,,,0.00,Wunderground v.1.15,2013-01-04 11:45:00,
2013-01-04 05:54:00,23.8,16.7,30.16,West,269,11.0,11.0,74,0.00,,,0.00,Wunderground v.1.15,2013-01-04 11:54:00,
2013-01-04 05:59:00,23.5,16.7,30.15,West,281,11.0,11.0,75,0.00,,,0.00,Wunderground v.1.15,2013-01-04 11:59:00,
2013-01-04 06:05:00,23.3,16.9,30.15,West,276,12.0,12.0,76,0.00,,,0.00,Wunderground v.1.15,2013-01-04 12:05:00,
2013-01-04 06:10:00,23.2,17.1,30.15,WSW,252,13.0,13.0,77,0.00,,,0.00,Wunderground v.1.15,2013-01-04 12:10:00,
2013-01-04 06:15:00,23.2,17.1,30.16,WNW,299,13.0,14.0,77,0.00,,,0.00,Wunderground v.1.15,2013-01-04 12:15:00,
2013-01-04 06:20:00,23.2,17.4,30.16,WNW,284,11.0,11.0,78,0.00,,,0.00,Wunderground v.1.15,2013-01-04 12:20:00,
2013-01-04 06:25:00,23.2,17.1,30.16,WSW,252,11.0,12.0,77,0.00,,,0.00,Wunderground v.1.15,2013-01-04 12:25:00,
2013-01-04 06:30:00,23.3,17.5,30.16,West,267,11.0,11.0,78,0.00,,,0.00,Wunderground v.1.15,2013-01-04 12:30:00,
2013-01-04 06:35:00,23.3,17.5,30.16,West,270,12.0,23.0,78,0.00,,,0.00,Wunderground v.1.15,2013-01-04 12:35:00,
2013-01-04 06:40:00,23.5,17.3,30.16,West,271,13.0,14.0,77,0.00,,,0.00,Wunderground v.1.15,2013-01-04 12:40:00,
2013-01-04 06:44:00,23.6,17.4,30.16,WNW,283,12.0,14.0,77,0.00,,,0.00,Wunderground v.1.15,2013-01-04 12:44:00,
2013-01-04 06:49:00,23.6,17.4,30.16,West,269,11.0,15.0,77,0.00,,,0.00,Wunderground v.1.15,2013-01-04 12:49:00,
2013-01-04 06:54:00,23.8,17.6,30.16,West,269,11.0,15.0,77,0.00,,,0.00,Wunderground v.1.15,2013-01-04 12:54:00,
2013-01-04 07:00:00,23.8,17.6,30.16,WNW,282,11.0,11.0,77,0.00,,,0.00,Wunderground v.1.15,2013-01-04 13:00:00,
2013-01-04 07:05:00,23.8,17.9,30.16,West,266,10.0,22.0,78,0.00,,,0.00,Wunderground v.1.15,2013-01-04 13:05:00,
2013-01-04 07:10:00,23.6,17.4,30.16,West,273,11.0,11.0,77,0.00,,,0.00,Wunderground v.1.15,2013-01-04 13:10:00,
2013-01-04 07:15:00,23.6,17.7,30.16,West,281,12.0,12.0,78,0.00,,,0.00,Wunderground v.1.15,2013-01-04 13:15:00,
2013-01-04 07:20:00,23.6,17.7,30.16,West,281,11.0,12.0,78,0.00,,,0.00,Wunderground v.1.15,2013-01-04 13:20:00,
2013-01-04 07:25:00,23.8,18.2,30.16,WNW,295,10.0,12.0,79,0.00,,,0.00,Wunderground v.1.15,2013-01-04 13:25:00,
2013-01-04 07:30:00,23.8,18.2,30.16,West,277,10.0,10.0,79,0.00,,,0.00,Wunderground v.1.15,2013-01-04 13:30:00,
2013-01-04 07:35:00,23.8,18.2,30.16,WNW,286,10.0,14.0,79,0.00,,,0.00,Wunderground v.1.15,2013-01-04 13:35:00,
2013-01-04 07:40:00,23.8,18.2,30.16,West,261,10.0,10.0,79,0.00,,,0.00,Wunderground v.1.15,2013-01-04 13:40:00,
2013-01-04 07:45:00,23.8,18.2,30.16,West,265,10.0,10.0,79,0.00,,,0.00,Wunderground v.1.15,2013-01-04 13:45:00,
2013-01-04 07:50:00,23.8,18.2,30.16,WSW,252,10.0,10.0,79,0.00,,,0.00,Wunderground v.1.15,2013-01-04 13:50:00,
2013-01-04 07:59:00,24.2,18.6,30.17,West,281,11.0,11.0,79,0.00,,,0.00,Wunderground v.1.15,2013-01-04 13:59:00,
2013-01-04 08:05:00,24.2,18.6,30.17,West,263,11.0,12.0,79,0.00,,,0.00,Wunderground v.1.15,2013-01-04 14:05:00,
2013-01-04 08:15:00,24.4,18.8,30.17,West,269,10.0,12.0,79,0.00,,,0.00,Wunderground v.1.15,2013-01-04 14:15:00,
2013-01-04 08:20:00,24.4,18.8,30.17,WNW,297,11.0,11.0,79,0.00,,,0.00,Wunderground v.1.15,2013-01-04 14:20:00,
2013-01-04 08:25:00,24.5,18.9,30.17,WNW,297,10.0,14.0,79,0.00,,,0.00,Wunderground v.1.15,2013-01-04 14:25:00,
2013-01-04 08:30:00,24.5,18.9,30.18,West,273,10.0,11.0,79,0.00,,,0.00,Wunderground v.1.15,2013-01-04 14:30:00,
2013-01-04 08:35:00,24.7,18.8,30.18,West,269,10.0,15.0,78,0.00,,,0.00,Wunderground v.1.15,2013-01-04 14:35:00,
2013-01-04 08:40:00,24.7,18.8,30.18,West,271,10.0,10.0,78,0.00,,,0.00,Wunderground v.1.15,2013-01-04 14:40:00,
2013-01-04 08:45:00,25.0,19.1,30.18,North,355,9.0,10.0,78,0.00,,,0.00,Wunderground v.1.15,2013-01-04 14:45:00,
2013-01-04 08:50:00,25.0,19.1,30.18,NW,304,9.0,11.0,78,0.00,,,0.00,Wunderground v.1.15,2013-01-04 14:50:00,
2013-01-04 08:55:00,25.1,19.2,30.18,WNW,293,10.0,11.0,78,0.00,,,0.00,Wunderground v.1.15,2013-01-04 14:55:00,
2013-01-04 09:00:00,25.3,19.4,30.17,West,277,10.0,10.0,78,0.00,,,0.00,Wunderground v.1.15,2013-01-04 15:00:00,
2013-01-04 09:04:00,25.4,19.5,30.17,West,278,9.0,10.0,78,0.00,,,0.00,Wunderground v.1.15,2013-01-04 15:04:00,
2013-01-04 09:09:00,25.6,19.7,30.17,West,267,9.0,9.0,78,0.00,,,0.00,Wunderground v.1.15,2013-01-04 15:09:00,
2013-01-04 09:14:00,25.7,19.5,30.18,West,273,10.0,10.0,77,0.00,,,0.00,Wunderground v.1.15,2013-01-04 15:14:00,
2013-01-04 09:19:00,25.8,19.9,30.18,West,273,9.0,10.0,78,0.00,,,0.00,Wunderground v.1.15,2013-01-04 15:19:00,
2013-01-04 09:24:00,25.8,19.9,30.18,West,263,10.0,17.0,78,0.00,,,0.00,Wunderground v.1.15,2013-01-04 15:24:00,
2013-01-04 09:29:00,25.7,20.1,30.17,West,266,12.0,12.0,79,0.00,,,0.00,Wunderground v.1.15,2013-01-04 15:29:00,
2013-01-04 09:34:00,25.6,20.0,30.17,West,265,12.0,15.0,79,0.00,,,0.00,Wunderground v.1.15,2013-01-04 15:34:00,
2013-01-04 09:39:00,25.4,19.8,30.17,West,267,13.0,13.0,79,0.00,,,0.00,Wunderground v.1.15,2013-01-04 15:39:00,
2013-01-04 09:44:00,25.6,20.0,30.17,WSW,248,12.0,13.0,79,0.00,,,0.00,Wunderground v.1.15,2013-01-04 15:44:00,
2013-01-04 09:49:00,25.6,20.0,30.17,West,259,11.0,11.0,79,0.00,,,0.00,Wunderground v.1.15,2013-01-04 15:49:00,
2013-01-04 09:54:00,25.7,20.1,30.17,West,273,10.0,16.0,79,0.00,,,0.00,Wunderground v.1.15,2013-01-04 15:54:00,
2013-01-04 10:00:00,25.4,19.8,30.17,WSW,256,11.0,11.0,79,0.00,,,0.00,Wunderground v.1.15,2013-01-04 16:00:00,
2013-01-04 10:05:00,25.1,19.5,30.17,West,262,12.0,12.0,79,0.00,,,0.00,Wunderground v.1.15,2013-01-04 16:05:00,
2013-01-04 10:10:00,25.1,19.5,30.17,WSW,242,11.0,11.0,79,0.00,,,0.00,Wunderground v.1.15,2013-01-04 16:10:00,
2013-01-04 10:14:00,25.3,19.7,30.17,WSW,254,11.0,15.0,79,0.00,,,0.00,Wunderground v.1.15,2013-01-04 16:14:00,
2013-01-04 10:19:00,25.4,20.1,30.17,West,261,12.0,14.0,80,0.00,,,0.00,Wunderground v.1.15,2013-01-04 16:19:00,
2013-01-04 10:24:00,25.4,19.8,30.17,West,259,12.0,14.0,79,0.00,,,0.00,Wunderground v.1.15,2013-01-04 16:24:00,
2013-01-04 10:30:00,25.7,20.1,30.16,West,275,12.0,12.0,79,0.00,,,0.00,Wunderground v.1.15,2013-01-04 16:30:00,
2013-01-04 10:34:00,25.6,20.0,30.16,West,267,12.0,12.0,79,0.00,,,0.00,Wunderground v.1.15,2013-01-04 16:34:00,
2013-01-04 10:39:00,25.7,19.8,30.16,WSW,258,13.0,13.0,78,0.00,,,0.00,Wunderground v.1.15,2013-01-04 16:39:00,
2013-01-04 10:44:00,26.1,20.5,30.15,WSW,247,11.0,20.0,79,0.00,,,0.00,Wunderground v.1.15,2013-01-04 16:44:00,
2013-01-04 10:49:00,26.3,20.4,30.15,WSW,255,11.0,11.0,78,0.00,,,0.00,Wunderground v.1.15,2013-01-04 16:49:00,
2013-01-04 10:54:00,26.1,20.2,30.15,WNW,297,13.0,16.0,78,0.00,,,0.00,Wunderground v.1.15,2013-01-04 16:54:00,
2013-01-04 10:59:00,26.3,20.4,30.14,WNW,283,14.0,14.0,78,0.00,,,0.00,Wunderground v.1.15,2013-01-04 16:59:00,
2013-01-04 11:05:00,26.6,20.4,30.14,West,266,13.0,15.0,77,0.00,,,0.00,Wunderground v.1.15,2013-01-04 17:05:00,
2013-01-04 11:10:00,26.6,20.4,30.14,WSW,253,12.0,14.0,77,0.00,,,0.00,Wunderground v.1.15,2013-01-04 17:10:00,
2013-01-04 11:15:00,26.6,20.4,30.14,WSW,239,13.0,16.0,77,0.00,,,0.00,Wunderground v.1.15,2013-01-04 17:15:00,
2013-01-04 11:20:00,26.6,20.4,30.14,WSW,253,12.0,15.0,77,0.00,,,0.00,Wunderground v.1.15,2013-01-04 17:20:00,
2013-01-04 11:25:00,26.9,20.7,30.14,West,276,11.0,15.0,77,0.00,,,0.00,Wunderground v.1.15,2013-01-04 17:25:00,
2013-01-04 11:30:00,27.5,21.2,30.13,WSW,249,9.0,10.0,77,0.00,,,0.00,Wunderground v.1.15,2013-01-04 17:30:00,
2013-01-04 11:40:00,27.9,20.7,30.13,WSW,242,11.0,11.0,74,0.00,,,0.00,Wunderground v.1.15,2013-01-04 17:40:00,
2013-01-04 11:45:00,28.1,20.6,30.12,West,264,11.0,11.0,73,0.00,,,0.00,Wunderground v.1.15,2013-01-04 17:45:00,
2013-01-04 11:49:00,28.2,20.7,30.12,SW,233,11.0,18.0,73,0.00,,,0.00,Wunderground v.1.15,2013-01-04 17:49:00,
2013-01-04 11:54:00,28.2,20.3,30.12,WNW,284,12.0,19.0,72,0.00,,,0.00,Wunderground v.1.15,2013-01-04 17:54:00,
2013-01-04 11:59:00,28.2,20.3,30.12,WSW,255,15.0,25.0,72,0.00,,,0.00,Wunderground v.1.15,2013-01-04 17:59:00,
2013-01-04 12:05:00,28.5,20.6,30.12,West,267,16.0,25.0,72,0.00,,,0.00,Wunderground v.1.15,2013-01-04 18:05:00,
2013-01-04 12:10:00,28.8,20.6,30.12,WSW,252,15.0,15.0,71,0.00,,,0.00,Wunderground v.1.15,2013-01-04 18:10:00,
2013-01-04 12:15:00,29.1,20.9,30.11,West,266,14.0,15.0,71,0.00,,,0.00,Wunderground v.1.15,2013-01-04 18:15:00,
2013-01-04 12:20:00,29.4,21.2,30.11,West,276,14.0,14.0,71,0.00,,,0.00,Wunderground v.1.15,2013-01-04 18:20:00,
2013-01-04 12:25:00,29.8,21.2,30.11,SW,216,12.0,14.0,70,0.00,,,0.00,Wunderground v.1.15,2013-01-04 18:25:00,
2013-01-04 12:30:00,29.8,21.2,30.10,WSW,247,13.0,13.0,70,0.00,,,0.00,Wunderground v.1.15,2013-01-04 18:30:00,
2013-01-04 12:35:00,30.0,21.4,30.10,West,259,13.0,13.0,70,0.00,,,0.00,Wunderground v.1.15,2013-01-04 18:35:00,
2013-01-04 12:40:00,30.4,21.4,30.10,West,269,11.0,18.0,69,0.00,,,0.00,Wunderground v.1.15,2013-01-04 18:40:00,
2013-01-04 12:45:00,30.4,21.4,30.09,West,263,13.0,18.0,69,0.00,,,0.00,Wunderground v.1.15,2013-01-04 18:45:00,
2013-01-04 12:50:00,30.9,21.9,30.09,WSW,256,13.0,13.0,69,0.00,,,0.00,Wunderground v.1.15,2013-01-04 18:50:00,
2013-01-04 12:55:00,31.2,21.9,30.09,WNW,300,11.0,16.0,68,0.00,,,0.00,Wunderground v.1.15,2013-01-04 18:55:00,
2013-01-04 13:00:00,31.2,21.9,30.10,West,268,12.0,14.0,68,0.00,,,0.00,Wunderground v.1.15,2013-01-04 19:00:00,
2013-01-04 13:09:00,31.6,21.9,30.10,West,276,13.0,17.0,67,0.00,,,0.00,Wunderground v.1.15,2013-01-04 19:09:00,
2013-01-04 13:14:00,31.8,22.1,30.09,WSW,252,13.0,18.0,67,0.00,,,0.00,Wunderground v.1.15,2013-01-04 19:14:00,
2013-01-04 13:20:00,32.1,22.4,30.09,WSW,248,12.0,24.0,67,0.00,,,0.00,Wunderground v.1.15,2013-01-04 19:20:00,
2013-01-04 13:25:00,32.4,22.3,30.09,West,264,12.0,24.0,66,0.00,,,0.00,Wunderground v.1.15,2013-01-04 19:25:00,
2013-01-04 13:30:00,32.7,22.6,30.09,West,273,11.0,13.0,66,0.00,,,0.00,Wunderground v.1.15,2013-01-04 19:30:00,
2013-01-04 13:35:00,32.5,22.4,30.09,West,260,12.0,13.0,66,0.00,,,0.00,Wunderground v.1.15,2013-01-04 19:35:00,
2013-01-04 13:40:00,32.7,22.6,30.09,West,265,13.0,13.0,66,0.00,,,0.00,Wunderground v.1.15,2013-01-04 19:40:00,
2013-01-04 13:45:00,33.1,22.6,30.09,WNW,282,11.0,13.0,65,0.00,,,0.00,Wunderground v.1.15,2013-01-04 19:45:00,
2013-01-04 13:50:00,33.1,22.2,30.09,West,276,12.0,17.0,64,0.00,,,0.00,Wunderground v.1.15,2013-01-04 19:50:00,
2013-01-04 13:55:00,33.2,22.0,30.09,WNW,289,14.0,17.0,63,0.00,,,0.00,Wunderground v.1.15,2013-01-04 19:55:00,
2013-01-04 14:00:00,33.4,22.5,30.09,West,264,12.0,12.0,64,0.00,,,0.00,Wunderground v.1.15,2013-01-04 20:00:00,
2013-01-04 14:04:00,33.7,22.4,30.09,West,268,11.0,13.0,63,0.00,,,0.00,Wunderground v.1.15,2013-01-04 20:04:00,
2013-01-04 14:09:00,34.0,22.7,30.09,WSW,250,10.0,15.0,63,0.00,,,0.00,Wunderground v.1.15,2013-01-04 20:09:00,
2013-01-04 14:14:00,34.0,22.3,30.09,West,271,10.0,15.0,62,0.00,,,0.00,Wunderground v.1.15,2013-01-04 20:14:00,
2013-01-04 14:20:00,34.0,22.3,30.09,West,277,12.0,12.0,62,0.00,,,0.00,Wunderground v.1.15,2013-01-04 20:20:00,
2013-01-04 14:25:00,34.1,22.4,30.09,West,267,12.0,12.0,62,0.00,,,0.00,Wunderground v.1.15,2013-01-04 20:25:00,
2013-01-04 14:30:00,34.3,22.6,30.09,WSW,249,11.0,13.0,62,0.00,,,0.00,Wunderground v.1.15,2013-01-04 20:30:00,
2013-01-04 14:35:00,34.4,22.3,30.09,West,261,12.0,15.0,61,0.00,,,0.00,Wunderground v.1.15,2013-01-04 20:35:00,
2013-01-04 14:40:00,34.6,21.7,30.09,West,266,13.0,13.0,59,0.00,,,0.00,Wunderground v.1.15,2013-01-04 20:40:00,
2013-01-04 14:45:00,34.9,22.4,30.09,SW,229,12.0,13.0,60,0.00,,,0.00,Wunderground v.1.15,2013-01-04 20:45:00,
2013-01-04 14:50:00,35.0,22.5,30.09,West,276,10.0,15.0,60,0.00,,,0.00,Wunderground v.1.15,2013-01-04 20:50:00,
2013-01-04 14:55:00,35.2,22.7,30.09,West,266,12.0,15.0,60,0.00,,,0.00,Wunderground v.1.15,2013-01-04 20:55:00,
2013-01-04 15:00:00,35.3,22.4,30.09,West,273,13.0,13.0,59,0.00,,,0.00,Wunderground v.1.15,2013-01-04 21:00:00,
2013-01-04 15:04:00,35.5,22.2,30.09,West,263,12.0,13.0,58,0.00,,,0.00,Wunderground v.1.15,2013-01-04 21:04:00,
2013-01-04 15:09:00,35.6,22.7,30.09,WSW,250,12.0,20.0,59,0.00,,,0.00,Wunderground v.1.15,2013-01-04 21:09:00,
2013-01-04 15:15:00,35.6,21.9,30.09,WNW,300,14.0,20.0,57,0.00,,,0.00,Wunderground v.1.15,2013-01-04 21:15:00,
2013-01-04 15:20:00,35.8,22.5,30.09,SW,236,15.0,15.0,58,0.00,,,0.00,Wunderground v.1.15,2013-01-04 21:20:00,
2013-01-04 15:25:00,35.9,22.5,30.09,WSW,257,11.0,15.0,58,0.00,,,0.00,Wunderground v.1.15,2013-01-04 21:25:00,
2013-01-04 15:34:00,35.9,22.1,30.10,WSW,255,11.0,12.0,57,0.00,,,0.00,Wunderground v.1.15,2013-01-04 21:34:00,
2013-01-04 15:39:00,35.9,22.5,30.10,WSW,255,11.0,12.0,58,0.00,,,0.00,Wunderground v.1.15,2013-01-04 21:39:00,
2013-01-04 15:44:00,35.9,22.5,30.10,West,275,11.0,18.0,58,0.00,,,0.00,Wunderground v.1.15,2013-01-04 21:44:00,
2013-01-04 15:50:00,35.9,22.5,30.10,WNW,284,12.0,12.0,58,0.00,,,0.00,Wunderground v.1.15,2013-01-04 21:50:00,
2013-01-04 15:55:00,35.9,23.0,30.10,WSW,242,12.0,12.0,59,0.00,,,0.00,Wunderground v.1.15,2013-01-04 21:55:00,
2013-01-04 16:00:00,35.9,23.0,30.10,WSW,256,11.0,11.0,59,0.00,,,0.00,Wunderground v.1.15,2013-01-04 22:00:00,
2013-01-04 16:05:00,35.9,23.0,30.10,WNW,291,11.0,13.0,59,0.00,,,0.00,Wunderground v.1.15,2013-01-04 22:05:00,
2013-01-04 16:14:00,35.8,24.4,30.11,WSW,245,11.0,15.0,63,0.00,,,0.00,Wunderground v.1.15,2013-01-04 22:14:00,
2013-01-04 16:19:00,35.5,23.0,30.11,West,276,11.0,18.0,60,0.00,,,0.00,Wunderground v.1.15,2013-01-04 22:19:00,
2013-01-04 16:24:00,35.6,23.1,30.11,West,266,10.0,18.0,60,0.00,,,0.00,Wunderground v.1.15,2013-01-04 22:24:00,
2013-01-04 16:29:00,35.8,23.3,30.11,West,273,12.0,15.0,60,0.00,,,0.00,Wunderground v.1.15,2013-01-04 22:29:00,
2013-01-04 16:35:00,35.8,23.3,30.11,West,264,12.0,15.0,60,0.00,,,0.00,Wunderground v.1.15,2013-01-04 22:35:00,
2013-01-04 16:40:00,35.8,23.3,30.11,West,264,12.0,12.0,60,0.00,,,0.00,Wunderground v.1.15,2013-01-04 22:40:00,
2013-01-04 16:45:00,35.9,23.7,30.12,West,273,12.0,14.0,61,0.00,,,0.00,Wunderground v.1.15,2013-01-04 22:45:00,
2013-01-04 16:50:00,35.9,23.0,30.12,West,269,12.0,12.0,59,0.00,,,0.00,Wunderground v.1.15,2013-01-04 22:50:00,
2013-01-04 16:55:00,35.9,23.4,30.12,West,265,11.0,12.0,60,0.00,,,0.00,Wunderground v.1.15,2013-01-04 22:55:00,
2013-01-04 17:00:00,36.0,22.6,30.12,West,259,11.0,11.0,58,0.00,,,0.00,Wunderground v.1.15,2013-01-04 23:00:00,
2013-01-04 17:09:00,35.9,23.0,30.12,West,275,10.0,12.0,59,0.00,,,0.00,Wunderground v.1.15,2013-01-04 23:09:00,
2013-01-04 17:14:00,36.0,23.0,30.13,WNW,289,10.0,12.0,59,0.00,,,0.00,Wunderground v.1.15,2013-01-04 23:14:00,
2013-01-04 17:19:00,35.9,23.0,30.13,WNW,294,10.0,10.0,59,0.00,,,0.00,Wunderground v.1.15,2013-01-04 23:19:00,
2013-01-04 17:24:00,36.0,23.0,30.13,WNW,286,10.0,20.0,59,0.00,,,0.00,Wunderground v.1.15,2013-01-04 23:24:00,
2013-01-04 17:29:00,36.2,23.2,30.13,West,272,11.0,11.0,59,0.00,,,0.00,Wunderground v.1.15,2013-01-04 23:29:00,
2013-01-04 17:34:00,36.2,23.6,30.13,West,270,11.0,14.0,60,0.00,,,0.00,Wunderground v.1.15,2013-01-04 23:34:00,
2013-01-04 17:39:00,36.0,23.4,30.13,WNW,282,10.0,10.0,60,0.00,,,0.00,Wunderground v.1.15,2013-01-04 23:39:00,
2013-01-04 17:44:00,35.9,23.0,30.14,WNW,286,10.0,16.0,59,0.00,,,0.00,Wunderground v.1.15,2013-01-04 23:44:00,
2013-01-04 17:49:00,36.0,23.0,30.14,WNW,282,10.0,10.0,59,0.00,,,0.00,Wunderground v.1.15,2013-01-04 23:49:00,
2013-01-04 17:54:00,36.0,23.4,30.14,WNW,296,9.0,10.0,60,0.00,,,0.00,Wunderground v.1.15,2013-01-04 23:54:00,
2013-01-04 17:59:00,36.0,23.0,30.14,WNW,282,11.0,11.0,59,0.00,,,0.00,Wunderground v.1.15,2013-01-04 23:59:00,
2013-01-04 18:05:00,35.8,23.3,30.14,West,275,13.0,13.0,60,0.00,,,0.00,Wunderground v.1.15,2013-01-05 00:05:00,
2013-01-04 18:10:00,35.6,23.1,30.14,West,271,11.0,11.0,60,0.00,,,0.00,Wunderground v.1.15,2013-01-05 00:10:00,
2013-01-04 18:15:00,35.6,23.1,30.15,West,279,10.0,11.0,60,0.00,,,0.00,Wunderground v.1.15,2013-01-05 00:15:00,
2013-01-04 18:20:00,35.6,23.5,30.15,West,277,10.0,13.0,61,0.00,,,0.00,Wunderground v.1.15,2013-01-05 00:20:00,
2013-01-04 18:25:00,35.5,23.8,30.15,NW,304,10.0,13.0,62,0.00,,,0.00,Wunderground v.1.15,2013-01-05 00:25:00,
2013-01-04 18:30:00,35.3,23.6,30.16,WNW,294,10.0,14.0,62,0.00,,,0.00,Wunderground v.1.15,2013-01-05 00:30:00,
2013-01-04 18:35:00,35.3,23.6,30.16,WNW,294,10.0,14.0,62,0.00,,,0.00,Wunderground v.1.15,2013-01-05 00:35:00,
2013-01-04 18:45:00,35.2,23.5,30.16,WNW,294,10.0,14.0,62,0.00,,,0.00,Wunderground v.1.15,2013-01-05 00:45:00,
2013-01-04 18:50:00,35.0,23.3,30.16,West,267,11.0,11.0,62,0.00,,,0.00,Wunderground v.1.15,2013-01-05 00:50:00,
2013-01-04 18:55:00,34.9,23.6,30.16,WNW,283,9.0,11.0,63,0.00,,,0.00,Wunderground v.1.15,2013-01-05 00:55:00,
2013-01-04 19:00:00,34.9,23.2,30.16,WNW,297,9.0,13.0,62,0.00,,,0.00,Wunderground v.1.15,2013-01-05 01:00:00,
2013-01-04 19:09:00,34.9,23.6,30.16,West,265,9.0,11.0,63,0.00,,,0.00,Wunderground v.1.15,2013-01-05 01:09:00,
2013-01-04 19:14:00,34.7,23.8,30.16,West,279,10.0,11.0,64,0.00,,,0.00,Wunderground v.1.15,2013-01-05 01:14:00,
2013-01-04 19:20:00,34.7,24.1,30.16,West,269,12.0,12.0,65,0.00,,,0.00,Wunderground v.1.15,2013-01-05 01:20:00,
2013-01-04 19:25:00,34.6,24.0,30.16,West,274,10.0,12.0,65,0.00,,,0.00,Wunderground v.1.15,2013-01-05 01:25:00,
2013-01-04 19:30:00,34.4,23.8,30.16,WNW,286,9.0,10.0,65,0.00,,,0.00,Wunderground v.1.15,2013-01-05 01:30:00,
2013-01-04 19:35:00,34.4,24.2,30.16,West,261,9.0,13.0,66,0.00,,,0.00,Wunderground v.1.15,2013-01-05 01:35:00,
2013-01-04 19:40:00,34.4,23.8,30.16,WSW,249,8.0,13.0,65,0.00,,,0.00,Wunderground v.1.15,2013-01-05 01:40:00,
2013-01-04 19:45:00,34.3,24.1,30.17,WNW,294,9.0,13.0,66,0.00,,,0.00,Wunderground v.1.15,2013-01-05 01:45:00,
2013-01-04 19:50:00,34.3,24.1,30.17,WSW,258,9.0,18.0,66,0.00,,,0.00,Wunderground v.1.15,2013-01-05 01:50:00,
2013-01-04 19:55:00,34.3,23.7,30.17,WNW,288,10.0,18.0,65,0.00,,,0.00,Wunderground v.1.15,2013-01-05 01:55:00,
2013-01-04 20:00:00,34.3,23.7,30.17,West,277,11.0,11.0,65,0.00,,,0.00,Wunderground v.1.15,2013-01-05 02:00:00,
2013-01-04 20:04:00,34.1,23.9,30.17,West,280,10.0,11.0,66,0.00,,,0.00,Wunderground v.1.15,2013-01-05 02:04:00,
2013-01-04 20:09:00,34.1,23.9,30.17,West,278,9.0,16.0,66,0.00,,,0.00,Wunderground v.1.15,2013-01-05 02:09:00,
2013-01-04 20:14:00,34.1,23.9,30.17,WNW,282,10.0,16.0,66,0.00,,,0.00,Wunderground v.1.15,2013-01-05 02:14:00,
2013-01-04 20:19:00,34.1,23.9,30.17,West,280,10.0,10.0,66,0.00,,,0.00,Wunderground v.1.15,2013-01-05 02:19:00,
2013-01-04 20:24:00,34.1,23.9,30.17,West,279,8.0,10.0,66,0.00,,,0.00,Wunderground v.1.15,2013-01-05 02:24:00,
2013-01-04 20:29:00,34.1,24.3,30.17,West,280,8.0,8.0,67,0.00,,,0.00,Wunderground v.1.15,2013-01-05 02:29:00,
2013-01-04 20:34:00,34.3,24.5,30.17,West,277,10.0,11.0,67,0.00,,,0.00,Wunderground v.1.15,2013-01-05 02:34:00,
2013-01-04 20:40:00,34.1,24.3,30.17,WNW,290,10.0,10.0,67,0.00,,,0.00,Wunderground v.1.15,2013-01-05 02:40:00,
2013-01-04 20:45:00,34.3,24.5,30.17,WNW,294,9.0,10.0,67,0.00,,,0.00,Wunderground v.1.15,2013-01-05 02:45:00,
2013-01-04 20:50:00,34.1,24.6,30.17,WNW,297,8.0,8.0,68,0.00,,,0.00,Wunderground v.1.15,2013-01-05 02:50:00,
2013-01-04 20:55:00,34.1,24.6,30.17,West,275,8.0,10.0,68,0.00,,,0.00,Wunderground v.1.15,2013-01-05 02:55:00,
2013-01-04 21:00:00,34.0,24.5,30.18,West,269,8.0,8.0,68,0.00,,,0.00,Wunderground v.1.15,2013-01-05 03:00:00,
2013-01-04 21:05:00,33.8,24.7,30.18,West,261,6.0,8.0,69,0.00,,,0.00,Wunderground v.1.15,2013-01-05 03:05:00,
2013-01-04 21:10:00,34.0,24.9,30.18,WNW,282,6.0,6.0,69,0.00,,,0.00,Wunderground v.1.15,2013-01-05 03:10:00,
2013-01-04 21:14:00,33.8,24.7,30.18,WSW,248,7.0,10.0,69,0.00,,,0.00,Wunderground v.1.15,2013-01-05 03:14:00,
2013-01-04 21:19:00,33.8,25.0,30.18,WNW,287,7.0,11.0,70,0.00,,,0.00,Wunderground v.1.15,2013-01-05 03:19:00,
2013-01-04 21:24:00,33.8,25.0,30.18,West,271,8.0,11.0,70,0.00,,,0.00,Wunderground v.1.15,2013-01-05 03:24:00,
2013-01-04 21:29:00,33.7,24.6,30.17,West,267,8.0,11.0,69,0.00,,,0.00,Wunderground v.1.15,2013-01-05 03:29:00,
2013-01-04 21:34:00,33.7,25.0,30.17,NW,304,8.0,11.0,70,0.00,,,0.00,Wunderground v.1.15,2013-01-05 03:34:00,
2013-01-04 21:39:00,33.8,25.0,30.17,WNW,286,9.0,9.0,70,0.00,,,0.00,Wunderground v.1.15,2013-01-05 03:39:00,
2013-01-04 21:44:00,33.7,25.0,30.18,WNW,291,10.0,10.0,70,0.00,,,0.00,Wunderground v.1.15,2013-01-05 03:44:00,
2013-01-04 21:50:00,33.7,24.6,30.18,West,271,9.0,9.0,69,0.00,,,0.00,Wunderground v.1.15,2013-01-05 03:50:00,
2013-01-04 21:55:00,33.5,24.8,30.18,WNW,287,8.0,9.0,70,0.00,,,0.00,Wunderground v.1.15,2013-01-05 03:55:00,
2013-01-04 22:00:00,33.5,24.8,30.18,WSW,256,7.0,7.0,70,0.00,,,0.00,Wunderground v.1.15,2013-01-05 04:00:00,
2013-01-04 22:05:00,33.4,25.0,30.18,WNW,287,8.0,8.0,71,0.00,,,0.00,Wunderground v.1.15,2013-01-05 04:05:00,
2013-01-04 22:10:00,33.4,25.0,30.18,West,277,8.0,8.0,71,0.00,,,0.00,Wunderground v.1.15,2013-01-05 04:10:00,
2013-01-04 22:15:00,33.4,25.0,30.18,WNW,290,8.0,8.0,71,0.00,,,0.00,Wunderground v.1.15,2013-01-05 04:15:00,
2013-01-04 22:20:00,33.2,24.8,30.18,WNW,286,8.0,8.0,71,0.00,,,0.00,Wunderground v.1.15,2013-01-05 04:20:00,
2013-01-04 22:24:00,33.2,24.5,30.18,WNW,283,9.0,12.0,70,0.00,,,0.00,Wunderground v.1.15,2013-01-05 04:24:00,
2013-01-04 22:29:00,33.4,24.7,30.19,NW,318,9.0,9.0,70,0.00,,,0.00,Wunderground v.1.15,2013-01-05 04:29:00,
2013-01-04 22:34:00,33.4,25.0,30.19,West,274,9.0,9.0,71,0.00,,,0.00,Wunderground v.1.15,2013-01-05 04:34:00,
2013-01-04 22:39:00,33.4,25.0,30.19,WNW,294,8.0,8.0,71,0.00,,,0.00,Wunderground v.1.15,2013-01-05 04:39:00,
2013-01-04 22:44:00,33.4,25.3,30.19,West,275,7.0,8.0,72,0.00,,,0.00,Wunderground v.1.15,2013-01-05 04:44:00,
2013-01-04 22:49:00,33.4,25.3,30.19,West,275,6.0,9.0,72,0.00,,,0.00,Wunderground v.1.15,2013-01-05 04:49:00,
2013-01-04 22:55:00,33.4,25.3,30.19,West,267,7.0,9.0,72,0.00,,,0.00,Wunderground v.1.15,2013-01-05 04:55:00,
2013-01-04 23:05:00,33.2,25.1,30.18,West,275,8.0,8.0,72,0.00,,,0.00,Wunderground v.1.15,2013-01-05 05:05:00,
2013-01-04 23:09:00,33.2,25.1,30.18,West,279,7.0,7.0,72,0.00,,,0.00,Wunderground v.1.15,2013-01-05 05:09:00,
2013-01-04 23:14:00,33.2,25.5,30.18,West,281,6.0,7.0,73,0.00,,,0.00,Wunderground v.1.15,2013-01-05 05:14:00,
2013-01-04 23:19:00,33.2,25.5,30.18,WNW,292,7.0,9.0,73,0.00,,,0.00,Wunderground v.1.15,2013-01-05 05:19:00,
2013-01-04 23:25:00,33.2,25.1,30.18,WNW,294,7.0,9.0,72,0.00,,,0.00,Wunderground v.1.15,2013-01-05 05:25:00,
2013-01-04 23:30:00,33.2,25.1,30.18,WNW,283,8.0,8.0,72,0.00,,,0.00,Wunderground v.1.15,2013-01-05 05:30:00,
2013-01-04 23:35:00,33.2,25.5,30.18,West,263,7.0,8.0,73,0.00,,,0.00,Wunderground v.1.15,2013-01-05 05:35:00,
2013-01-04 23:40:00,33.1,25.4,30.18,West,278,7.0,7.0,73,0.00,,,0.00,Wunderground v.1.15,2013-01-05 05:40:00,
2013-01-04 23:45:00,33.1,25.4,30.18,West,267,7.0,7.0,73,0.00,,,0.00,Wunderground v.1.15,2013-01-05 05:45:00,
2013-01-04 23:49:00,33.1,25.7,30.18,West,272,6.0,9.0,74,0.00,,,0.00,Wunderground v.1.15,2013-01-05 05:49:00,
2013-01-04 23:54:00,33.1,25.7,30.18,West,265,7.0,9.0,74,0.00,,,0.00,Wunderground v.1.15,2013-01-05 05:54:00,
2013-01-04 23:59:00,32.9,25.2,30.18,WNW,284,8.0,8.0,73,0.00,,,0.00,Wunderground v.1.15,2013-01-05 05:59:00,